{"data":{"norad_id":66625,"intl_designator":"2025-271J","name":"STARLINK-35929","alt_names":[],"object_type":"PAYLOAD","status":"ACTIVE","operator":null,"country":"US","launch_date":"2025-11-23","launch_site_code":"AFWTR","launch_vehicle":null,"mission":null,"orbit_class":"UNKNOWN","rcs_meters":null,"size_class":null,"mass_kg":null,"dimensions":null,"purposes":["comms"],"wikipedia_slug":null,"has_3d_model":false,"image_url":null,"decayed_at":null,"tle_current":{"epoch":"2026-05-24T23:49:01.716672Z","epoch_age_seconds":76524,"freshness":"FRESH","line1":"1 66625U 25271J   26144.99238098  .00027749  00000+0  82906-3 0  9993","line2":"2 66625  53.1603 143.7678 0001399  97.1091 263.0071 15.34411598 29269","mean_motion":15.34411598,"eccentricity":0.0001399,"inclination_deg":53.1603,"raan_deg":143.7678,"arg_perigee_deg":97.1091,"mean_anomaly_deg":263.0071,"bstar":0.00082906,"rev_number":2926,"period_min":93.847048723885,"perigee_km":461.71173999702,"apogee_km":463.62579745111,"semimajor_km":6840.8057687241,"source":"CELESTRAK","updated_at":"2026-05-25T13:38:21.295651Z"}}}